QPF
0.00 0.00 0.00 0.01 0.01 0.01 0.01 0.01 0.00 0.00 0.00 0.00 0.00 0.00 0.01 0.02 0.04 0.04 0.04 0.03 0.02 0.02 0.02 0.03 0.03 0.03 0.02 0.03 0.05 0.04 0.04 0.04 0.04 0.05 0.05 0.04 0.04 0.03 0.02 0.02 0.03 0.03 0.03 0.02
0.00 0.00 0.00 0.00 0.00 0.00 0.01 0.01 0.00 0.00 0.00 0.00 0.00 0.00 0.00 0.01 0.02 0.03 0.03 0.02 0.02 0.02 0.02 0.02 0.03 0.02 0.02 0.03 0.03 0.03 0.03 0.03 0.04 0.04 0.05 0.05 0.03 0.02 0.02 0.03 0.04 0.03 0.03 0.02
0.01 0.00 0.00 0.00 0.00 0.00 0.01 0.01 0.00 0.00 0.00 0.00 0.00 0.00 0.00 0.00 0.01 0.03 0.03 0.03 0.02 0.02 0.01 0.01 0.01 0.02 0.02 0.02 0.02 0.02 0.02 0.02 0.02 0.03 0.02 0.02 0.02 0.02 0.02 0.04 0.04 0.03 0.02 0.02
0.01 0.00 0.00 0.00 0.01 0.00 0.01 0.00 0.00 0.00 0.01 0.01 0.00 0.01 0.00 0.00 0.03 0.06 0.06 0.05 0.02 0.02 0.02 0.02 0.02 0.02 0.02 0.02 0.01 0.02 0.02 0.02 0.02 0.02 0.03 0.03 0.03 0.03 0.03 0.03 0.04 0.03 0.02 0.02
0.01 0.01 0.01 0.00 0.00 0.00 0.01 0.00 0.00 0.00 0.01 0.01 0.00 0.00 0.00 0.00 0.03 0.05 0.05 0.04 0.04 0.05 0.03 0.02 0.02 0.02 0.02 0.01 0.01 0.01 0.01 0.01 0.02 0.02 0.03 0.03 0.03 0.02 0.02 0.02 0.03 0.03 0.03 0.03
0.00 0.00 0.01 0.01 0.00 0.00 0.00 0.00 0.00 0.00 0.00 0.01 0.00 0.00 0.01 0.00 0.01 0.02 0.02 0.03 0.03 0.04 0.03 0.02 0.02 0.02 0.03 0.02 0.01 0.01 0.01 0.02 0.03 0.03 0.02 0.02 0.02 0.02 0.01 0.02 0.03 0.03 0.04 0.04
0.01 0.00 0.00 0.00 0.00 0.00 0.00 0.00 0.01 0.01 0.01 0.01 0.00 0.00 0.00 0.00 0.00 0.01 0.02 0.01 0.01 0.03 0.02 0.02 0.02 0.02 0.04 0.03 0.02 0.02 0.02 0.02 0.02 0.02 0.02 0.01 0.02 0.02 0.02 0.02 0.03 0.03 0.03 0.03
0.01 0.01 0.00 0.00 0.00 0.00 0.00 0.00 0.01 0.01 0.01 0.00 0.00 0.00 0.00 0.00 0.00 0.01 0.01 0.01 0.01 0.03 0.02 0.03 0.02 0.02 0.03 0.03 0.03 0.03 0.02 0.01 0.01 0.02 0.02 0.01 0.01 0.02 0.03 0.03 0.02 0.02 0.02 0.02
0.01 0.00 0.00 0.00 0.00 0.00 0.01 0.01 0.00 0.00 0.00 0.01 0.01 0.00 0.00 0.00 0.00 0.00 0.00 0.01 0.01 0.03 0.02 0.02 0.01 0.01 0.02 0.02 0.03 0.02 0.02 0.01 0.01 0.01 0.02 0.01 0.01 0.02 0.04 0.04 0.03 0.02 0.02 0.02
0.00 0.00 0.00 0.00 0.00 0.00 0.01 0.01 0.01 0.01 0.01 0.01 0.01 0.01 0.01 0.00 0.00 0.01 0.01 0.02 0.03 0.05 0.04 0.01 0.01 0.02 0.03 0.02 0.02 0.01 0.01 0.02 0.02 0.03 0.03 0.02 0.02 0.02 0.03 0.03 0.03 0.02 0.01 0.02
0.00 0.00 0.00 0.01 0.01 0.01 0.01 0.01 0.01 0.01 0.01 0.01 0.01 0.01 0.01 0.00 0.00 0.00 0.01 0.01 0.01 0.01 0.02 0.02 0.02 0.02 0.02 0.02 0.02 0.02 0.03 0.03 0.04 0.05 0.05 0.02 0.02 0.01 0.01 0.02 0.02 0.02 0.02 0.02
0.00 0.00 0.00 0.01 0.01 0.01 0.01 0.01 0.01 0.02 0.01 0.01 0.01 0.00 0.00 0.01 0.01 0.00 0.00 0.01 0.00 0.01 0.01 0.02 0.03 0.03 0.03 0.03 0.03 0.02 0.02 0.03 0.03 0.04 0.04 0.02 0.01 0.01 0.01 0.02 0.02 0.03 0.04 0.04
0.00 0.00 0.00 0.01 0.01 0.01 0.01 0.01 0.02 0.02 0.02 0.01 0.01 0.01 0.00 0.01 0.01 0.00 0.00 0.00 0.01 0.01 0.02 0.02 0.02 0.02 0.02 0.02 0.02 0.01 0.01 0.01 0.02 0.02 0.03 0.02 0.01 0.01 0.02 0.02 0.03 0.03 0.03 0.02
0.00 0.00 0.00 0.01 0.01 0.00 0.00 0.01 0.02 0.02 0.02 0.02 0.01 0.01 0.00 0.00 0.00 0.00 0.00 0.01 0.00 0.01 0.01 0.01 0.01 0.01 0.01 0.01 0.02 0.02 0.02 0.02 0.02 0.02 0.03 0.03 0.02 0.02 0.02 0.02 0.02 0.02 0.01 0.01
0.00 0.00 0.00 0.00 0.00 0.00 0.00 0.00 0.01 0.01 0.02 0.01 0.01 0.01 0.00 0.01 0.01 0.01 0.01 0.01 0.00 0.01 0.01 0.01 0.01 0.01 0.01 0.01 0.02 0.03 0.02 0.02 0.02 0.02 0.03 0.04 0.04 0.03 0.03 0.03 0.04 0.03 0.02 0.01
0.00 0.00 0.00 0.01 0.00 0.00 0.01 0.01 0.01 0.01 0.01 0.01 0.01 0.01 0.00 0.01 0.01 0.01 0.01 0.01 0.01 0.01 0.01 0.01 0.01 0.01 0.01 0.01 0.03 0.05 0.04 0.03 0.02 0.02 0.03 0.03 0.03 0.03 0.03 0.04 0.04 0.03 0.03 0.04
0.00 0.00 0.01 0.01 0.02 0.01 0.01 0.01 0.01 0.01 0.01 0.01 0.00 0.01 0.00 0.01 0.01 0.01 0.02 0.02 0.01 0.01 0.01 0.01 0.01 0.02 0.02 0.02 0.03 0.05 0.06 0.05 0.03 0.01 0.01 0.02 0.02 0.02 0.03 0.03 0.03 0.04 0.04 0.04
0.00 0.00 0.01 0.02 0.01 0.02 0.01 0.01 0.00 0.01 0.01 0.00 0.00 0.00 0.01 0.01 0.02 0.03 0.03 0.03 0.02 0.02 0.01 0.01 0.01 0.02 0.02 0.02 0.03 0.03 0.02 0.01 0.01 0.01 0.01 0.01 0.01 0.02 0.02 0.03 0.04 0.04 0.04 0.03
0.00 0.00 0.01 0.01 0.01 0.01 0.01 0.00 0.00 0.00 0.00 0.00 0.00 0.01 0.02 0.02 0.02 0.04 0.04 0.04 0.04 0.03 0.03 0.02 0.03 0.03 0.02 0.02 0.02 0.02 0.01 0.01 0.01 0.02 0.02 0.02 0.01 0.02 0.03 0.03 0.03 0.03 0.03 0.03
0.00 0.00 0.01 0.01 0.01 0.02 0.01 0.00 0.01 0.01 0.01 0.01 0.01 0.02 0.03 0.04 0.05 0.05 0.05 0.03 0.03 0.03 0.03 0.03 0.02 0.03 0.02 0.01 0.01 0.01 0.01 0.01 0.01 0.01 0.02 0.04 0.03 0.04 0.05 0.05 0.05 0.04 0.04 0.04
0.01 0.01 0.01 0.01 0.01 0.01 0.01 0.01 0.01 0.02 0.02 0.02 0.02 0.02 0.02 0.03 0.05 0.04 0.04 0.03 0.02 0.02 0.03 0.03 0.03 0.02 0.01 0.01 0.01 0.01 0.01 0.01 0.01 0.02 0.03 0.05 0.05 0.06 0.06 0.06 0.05 0.05 0.05 0.04
0.01 0.01 0.01 0.01 0.01 0.01 0.00 0.00 0.02 0.03 0.01 0.01 0.01 0.01 0.02 0.02 0.03 0.02 0.02 0.01 0.01 0.02 0.02 0.02 0.03 0.02 0.02 0.01 0.01 0.01 0.01 0.01 0.01 0.02 0.04 0.05 0.06 0.07 0.07 0.07 0.06 0.06 0.07 0.05
0.00 0.01 0.01 0.01 0.01 0.00 0.01 0.03 0.05 0.03 0.01 0.02 0.02 0.02 0.02 0.02 0.02 0.01 0.01 0.01 0.01 0.01 0.02 0.01 0.01 0.02 0.04 0.02 0.01 0.01 0.01 0.01 0.01 0.03 0.04 0.04 0.05 0.07 0.08 0.09 0.08 0.07 0.08 0.08
0.00 0.01 0.01 0.00 0.00 0.02 0.03 0.06 0.05 0.02 0.01 0.02 0.02 0.02 0.01 0.01 0.00 0.01 0.01 0.01 0.01 0.01 0.01 0.01 0.01 0.02 0.04 0.03 0.01 0.01 0.01 0.01 0.01 0.02 0.04 0.04 0.05 0.06 0.07 0.08 0.09 0.09 0.09 0.09
0.00 0.01 0.01 0.01 0.01 0.04 0.06 0.05 0.03 0.01 0.01 0.02 0.01 0.01 0.01 0.00 0.00 0.01 0.01 0.01 0.01 0.01 0.01 0.01 0.02 0.02 0.04 0.04 0.03 0.02 0.02 0.02 0.04 0.04 0.05 0.06 0.06 0.07 0.08 0.09 0.10 0.11 0.11 0.10
0.00 0.01 0.01 0.01 0.01 0.03 0.05 0.03 0.03 0.03 0.02 0.01 0.01 0.01 0.01 0.01 0.00 0.01 0.01 0.01 0.01 0.01 0.01 0.02 0.02 0.03 0.04 0.05 0.04 0.04 0.03 0.04 0.06 0.06 0.05 0.04 0.04 0.04 0.05 0.06 0.08 0.12 0.13 0.12
MSLP
1008.80 1009.12 1009.32 1009.42 1009.46 1009.49 1009.56 1009.69 1009.88 1010.09 1010.29 1010.45 1010.53 1010.54 1010.47 1010.37 1010.27 1010.22 1010.25 1010.37 1010.58 1010.85 1011.15 1011.47 1011.76 1012.03 1012.28 1012.52 1012.76 1013.01 1013.29 1013.59 1013.88 1014.15 1014.39 1014.58 1014.72 1014.82 1014.89 1014.95 1015.02 1015.12 1015.25 1015.40
1008.90 1009.09 1009.16 1009.15 1009.13 1009.14 1009.23 1009.41 1009.67 1009.95 1010.22 1010.40 1010.48 1010.45 1010.31 1010.12 1009.93 1009.80 1009.76 1009.85 1010.05 1010.35 1010.70 1011.07 1011.42 1011.75 1012.05 1012.33 1012.60 1012.89 1013.19 1013.51 1013.82 1014.10 1014.34 1014.51 1014.62 1014.67 1014.68 1014.69 1014.71 1014.77 1014.88 1015.03
1008.89 1008.95 1008.89 1008.79 1008.71 1008.71 1008.84 1009.09 1009.43 1009.80 1010.13 1010.35 1010.43 1010.35 1010.15 1009.86 1009.57 1009.35 1009.24 1009.28 1009.46 1009.76 1010.15 1010.57 1010.98 1011.37 1011.72 1012.05 1012.37 1012.69 1013.03 1013.38 1013.72 1014.03 1014.28 1014.45 1014.54 1014.56 1014.53 1014.48 1014.45 1014.46 1014.54 1014.68
1008.79 1008.73 1008.57 1008.40 1008.30 1008.32 1008.50 1008.83 1009.26 1009.72 1010.11 1010.36 1010.42 1010.30 1010.01 1009.62 1009.22 1008.89 1008.69 1008.66 1008.81 1009.10 1009.50 1009.96 1010.42 1010.86 1011.27 1011.65 1012.01 1012.38 1012.77 1013.16 1013.54 1013.89 1014.17 1014.37 1014.47 1014.48 1014.42 1014.34 1014.26 1014.23 1014.27 1014.38
1008.61 1008.46 1008.25 1008.06 1007.97 1008.04 1008.29 1008.71 1009.22 1009.75 1010.18 1010.44 1010.48 1010.28 1009.90 1009.40 1008.88 1008.43 1008.12 1008.01 1008.11 1008.38 1008.78 1009.25 1009.75 1010.23 1010.68 1011.10 1011.52 1011.93 1012.36 1012.80 1013.23 1013.63 1013.96 1014.20 1014.34 1014.36 1014.31 1014.21 1014.11 1014.05 1014.05 1014.13
1008.35 1008.17 1007.95 1007.78 1007.74 1007.88 1008.22 1008.72 1009.31 1009.88 1010.33 1010.57 1010.55 1010.28 1009.78 1009.16 1008.50 1007.93 1007.52 1007.33 1007.36 1007.59 1007.98 1008.46 1008.98 1009.48 1009.97 1010.42 1010.87 1011.31 1011.78 1012.26 1012.75 1013.20 1013.59 1013.90 1014.08 1014.16 1014.13 1014.05 1013.94 1013.86 1013.84 1013.90
1008.02 1007.85 1007.67 1007.56 1007.60 1007.84 1008.26 1008.84 1009.48 1010.06 1010.50 1010.69 1010.60 1010.22 1009.61 1008.86 1008.09 1007.40 1006.89 1006.62 1006.59 1006.78 1007.15 1007.62 1008.14 1008.66 1009.16 1009.63 1010.09 1010.55 1011.04 1011.55 1012.07 1012.57 1013.03 1013.40 1013.65 1013.79 1013.82 1013.77 1013.69 1013.61 1013.59 1013.63
1007.63 1007.50 1007.38 1007.36 1007.51 1007.83 1008.34 1008.97 1009.62 1010.20 1010.59 1010.71 1010.53 1010.05 1009.34 1008.49 1007.62 1006.85 1006.26 1005.92 1005.84 1006.00 1006.34 1006.80 1007.31 1007.83 1008.32 1008.78 1009.23 1009.69 1010.17 1010.69 1011.23 1011.77 1012.27 1012.70 1013.03 1013.24 1013.33 1013.34 1013.30 1013.25 1013.24 1013.28
1007.19 1007.11 1007.08 1007.16 1007.39 1007.80 1008.36 1009.01 1009.65 1010.19 1010.51 1010.55 1010.29 1009.73 1008.95 1008.03 1007.11 1006.29 1005.66 1005.29 1005.18 1005.31 1005.63 1006.07 1006.56 1007.05 1007.52 1007.96 1008.38 1008.81 1009.27 1009.76 1010.30 1010.84 1011.37 1011.85 1012.23 1012.51 1012.67 1012.75 1012.76 1012.75 1012.76 1012.83
1006.73 1006.71 1006.76 1006.92 1007.23 1007.69 1008.27 1008.90 1009.49 1009.96 1010.20 1010.17 1009.84 1009.24 1008.43 1007.50 1006.58 1005.78 1005.16 1004.80 1004.68 1004.80 1005.10 1005.51 1005.97 1006.43 1006.86 1007.25 1007.63 1008.01 1008.41 1008.87 1009.37 1009.89 1010.42 1010.91 1011.34 1011.66 1011.89 1012.02 1012.09 1012.13 1012.18 1012.28
1006.31 1006.34 1006.45 1006.67 1007.01 1007.48 1008.03 1008.60 1009.11 1009.48 1009.65 1009.55 1009.19 1008.59 1007.81 1006.95 1006.10 1005.37 1004.82 1004.50 1004.42 1004.54 1004.83 1005.21 1005.63 1006.04 1006.42 1006.75 1007.06 1007.38 1007.72 1008.11 1008.55 1009.03 1009.53 1010.01 1010.44 1010.79 1011.05 1011.23 1011.35 1011.44 1011.52 1011.65
1005.99 1006.06 1006.20 1006.45 1006.79 1007.21 1007.68 1008.15 1008.54 1008.81 1008.89 1008.75 1008.39 1007.84 1007.15 1006.41 1005.70 1005.10 1004.67 1004.44 1004.41 1004.55 1004.83 1005.19 1005.56 1005.91 1006.23 1006.50 1006.74 1006.98 1007.25 1007.57 1007.93 1008.35 1008.79 1009.24 1009.64 1009.99 1010.27 1010.47 1010.62 1010.74 1010.86 1011.01
1005.84 1005.94 1006.10 1006.33 1006.61 1006.95 1007.29 1007.61 1007.86 1008.00 1007.99 1007.82 1007.49 1007.03 1006.49 1005.93 1005.41 1004.99 1004.71 1004.60 1004.65 1004.83 1005.10 1005.42 1005.75 1006.04 1006.29 1006.49 1006.67 1006.85 1007.04 1007.28 1007.57 1007.91 1008.28 1008.66 1009.02 1009.34 1009.60 1009.81 1009.96 1010.09 1010.22 1010.38
1005.89 1006.02 1006.18 1006.37 1006.56 1006.76 1006.94 1007.07 1007.15 1007.14 1007.04 1006.85 1006.57 1006.23 1005.86 1005.51 1005.21 1005.00 1004.91 1004.93 1005.07 1005.29 1005.56 1005.85 1006.13 1006.37 1006.56 1006.70 1006.82 1006.94 1007.07 1007.25 1007.46 1007.72 1008.02 1008.32 1008.61 1008.88 1009.09 1009.26 1009.40 1009.52 1009.64 1009.79
1006.16 1006.32 1006.46 1006.58 1006.67 1006.70 1006.68 1006.61 1006.49 1006.32 1006.12 1005.90 1005.67 1005.45 1005.26 1005.13 1005.06 1005.08 1005.17 1005.34 1005.57 1005.84 1006.12 1006.39 1006.62 1006.81 1006.95 1007.05 1007.12 1007.20 1007.29 1007.41 1007.56 1007.75 1007.97 1008.19 1008.40 1008.59 1008.74 1008.85 1008.94 1009.02 1009.11 1009.23
1006.58 1006.78 1006.91 1006.96 1006.92 1006.77 1006.55 1006.25 1005.93 1005.59 1005.28 1005.02 1004.83 1004.72 1004.70 1004.77 1004.92 1005.14 1005.42 1005.73 1006.06 1006.37 1006.66 1006.91 1007.11 1007.26 1007.36 1007.43 1007.49 1007.54 1007.61 1007.69 1007.80 1007.93 1008.07 1008.21 1008.34 1008.43 1008.50 1008.54 1008.56 1008.58 1008.61 1008.69
1007.07 1007.31 1007.43 1007.42 1007.25 1006.94 1006.52 1006.01 1005.48 1004.98 1004.55 1004.24 1004.07 1004.04 1004.15 1004.39 1004.73 1005.14 1005.57 1006.01 1006.41 1006.78 1007.08 1007.32 1007.50 1007.62 1007.71 1007.78 1007.83 1007.88 1007.94 1008.01 1008.10 1008.18 1008.26 1008.32 1008.36 1008.37 1008.34 1008.29 1008.22 1008.16 1008.12 1008.13
1007.48 1007.77 1007.90 1007.83 1007.57 1007.12 1006.52 1005.84 1005.13 1004.48 1003.94 1003.57 1003.39 1003.41 1003.62 1003.99 1004.47 1005.01 1005.56 1006.10 1006.58 1006.98 1007.31 1007.55 1007.72 1007.85 1007.94 1008.01 1008.08 1008.15 1008.22 1008.30 1008.37 1008.43 1008.46 1008.46 1008.42 1008.33 1008.21 1008.06 1007.90 1007.75 1007.63 1007.56
1007.70 1008.03 1008.17 1008.08 1007.76 1007.21 1006.50 1005.68 1004.84 1004.07 1003.45 1003.02 1002.82 1002.86 1003.12 1003.56 1004.13 1004.76 1005.40 1006.01 1006.54 1006.98 1007.32 1007.58 1007.76 1007.90 1008.01 1008.10 1008.20 1008.30 1008.40 1008.50 1008.57 1008.62 1008.62 1008.57 1008.46 1008.29 1008.09 1007.84 1007.59 1007.35 1007.14 1006.99
1007.64 1008.01 1008.17 1008.08 1007.73 1007.14 1006.37 1005.49 1004.58 1003.74 1003.06 1002.59 1002.38 1002.41 1002.69 1003.17 1003.77 1004.45 1005.13 1005.78 1006.34 1006.80 1007.17 1007.44 1007.64 1007.80 1007.94 1008.06 1008.20 1008.33 1008.46 1008.58 1008.67 1008.71 1008.69 1008.61 1008.45 1008.22 1007.94 1007.62 1007.29 1006.96 1006.68 1006.46
1007.27 1007.66 1007.85 1007.78 1007.45 1006.88 1006.12 1005.24 1004.33 1003.49 1002.80 1002.32 1002.09 1002.12 1002.38 1002.86 1003.46 1004.14 1004.83 1005.48 1006.05 1006.52 1006.89 1007.18 1007.40 1007.59 1007.75 1007.91 1008.07 1008.24 1008.41 1008.55 1008.65 1008.69 1008.67 1008.56 1008.37 1008.10 1007.77 1007.39 1007.00 1006.61 1006.27 1005.99
1006.64 1007.04 1007.25 1007.22 1006.95 1006.45 1005.76 1004.95 1004.11 1003.32 1002.66 1002.21 1001.98 1002.00 1002.25 1002.70 1003.27 1003.92 1004.57 1005.20 1005.75 1006.21 1006.58 1006.87 1007.11 1007.31 1007.49 1007.67 1007.85 1008.04 1008.22 1008.38 1008.49 1008.53 1008.50 1008.39 1008.19 1007.90 1007.54 1007.14 1006.71 1006.30 1005.92 1005.60
1005.85 1006.24 1006.47 1006.50 1006.31 1005.92 1005.34 1004.66 1003.94 1003.25 1002.68 1002.28 1002.08 1002.10 1002.33 1002.73 1003.25 1003.84 1004.44 1005.01 1005.52 1005.95 1006.30 1006.57 1006.80 1007.00 1007.18 1007.36 1007.54 1007.73 1007.91 1008.06 1008.17 1008.21 1008.18 1008.07 1007.87 1007.58 1007.23 1006.83 1006.41 1005.99 1005.61 1005.29
1005.05 1005.42 1005.67 1005.75 1005.65 1005.38 1004.95 1004.43 1003.85 1003.31 1002.85 1002.54 1002.39 1002.42 1002.62 1002.97 1003.43 1003.94 1004.46 1004.95 1005.39 1005.77 1006.07 1006.31 1006.51 1006.68 1006.83 1006.99 1007.15 1007.31 1007.46 1007.59 1007.67 1007.71 1007.67 1007.56 1007.37 1007.11 1006.79 1006.42 1006.03 1005.65 1005.30 1005.00
1004.39 1004.74 1004.99 1005.12 1005.10 1004.95 1004.67 1004.30 1003.90 1003.51 1003.18 1002.96 1002.87 1002.92 1003.10 1003.41 1003.79 1004.21 1004.63 1005.03 1005.39 1005.68 1005.92 1006.10 1006.24 1006.35 1006.46 1006.56 1006.66 1006.77 1006.87 1006.95 1007.00 1007.00 1006.95 1006.84 1006.67 1006.44 1006.17 1005.85 1005.53 1005.21 1004.92 1004.67
1004.00 1004.31 1004.56 1004.72 1004.77 1004.71 1004.56 1004.34 1004.08 1003.84 1003.64 1003.51 1003.48 1003.55 1003.72 1003.97 1004.28 1004.60 1004.93 1005.22 1005.48 1005.67 1005.82 1005.91 1005.98 1006.01 1006.04 1006.06 1006.09 1006.11 1006.14 1006.15 1006.14 1006.10 1006.03 1005.91 1005.76 1005.57 1005.34 1005.10 1004.85 1004.61 1004.40 1004.23
Thickness
5831 5825 5822 5828 5832 5830 5827 5824 5823 5829 5841 5836 5832 5832 5837 5841 5837 5833 5830 5828 5826 5826 5828 5827 5824 5822 5818 5813 5809 5806 5803 5801 5799 5796 5794 5791 5788 5788 5786 5785 5782 5780 5779 5777
5819 5819 5832 5837 5835 5829 5826 5821 5824 5831 5838 5834 5832 5833 5842 5842 5839 5838 5835 5832 5830 5829 5828 5825 5824 5822 5818 5813 5810 5807 5804 5802 5800 5797 5795 5792 5790 5788 5787 5785 5782 5780 5778 5777
5815 5827 5836 5829 5826 5823 5823 5821 5822 5822 5830 5836 5830 5827 5835 5842 5844 5842 5842 5841 5839 5834 5830 5826 5824 5822 5819 5815 5812 5811 5806 5803 5800 5798 5796 5792 5789 5787 5785 5782 5781 5780 5778 5776
5821 5831 5827 5823 5823 5824 5817 5831 5827 5823 5818 5822 5825 5812 5830 5838 5836 5838 5840 5841 5840 5838 5835 5830 5826 5823 5821 5818 5816 5812 5807 5803 5800 5798 5795 5791 5786 5783 5782 5781 5781 5779 5777 5775
5816 5824 5820 5817 5824 5827 5824 5833 5829 5824 5820 5818 5825 5816 5828 5838 5831 5836 5841 5843 5843 5842 5838 5833 5829 5825 5824 5821 5818 5813 5807 5803 5799 5797 5794 5789 5787 5785 5784 5782 5778 5776 5776 5774
5822 5830 5828 5825 5832 5831 5830 5826 5824 5823 5822 5802 5818 5813 5817 5838 5835 5839 5842 5843 5843 5842 5839 5835 5832 5828 5824 5822 5818 5813 5807 5801 5799 5795 5793 5788 5785 5782 5780 5777 5775 5775 5775 5773
5806 5817 5827 5831 5821 5825 5824 5812 5800 5795 5797 5803 5822 5813 5821 5841 5845 5843 5842 5841 5842 5841 5839 5835 5830 5825 5822 5819 5816 5812 5806 5801 5798 5794 5791 5788 5784 5781 5778 5777 5775 5773 5773 5772
5795 5798 5817 5823 5820 5816 5818 5816 5795 5782 5789 5807 5813 5809 5829 5844 5846 5847 5846 5844 5841 5840 5840 5835 5831 5826 5822 5818 5815 5811 5806 5801 5797 5794 5790 5787 5784 5783 5780 5776 5776 5773 5772 5771
5801 5799 5820 5824 5828 5823 5812 5814 5827 5812 5805 5800 5809 5818 5830 5840 5838 5839 5839 5838 5836 5836 5836 5833 5830 5826 5822 5818 5814 5810 5804 5800 5796 5793 5789 5785 5783 5780 5778 5775 5773 5772 5770 5769
5810 5794 5810 5817 5822 5821 5823 5821 5813 5803 5783 5782 5799 5806 5816 5822 5827 5831 5831 5830 5831 5833 5833 5831 5829 5825 5821 5818 5813 5809 5804 5799 5795 5792 5788 5786 5782 5779 5776 5773 5769 5768 5766 5764
5811 5794 5798 5805 5801 5804 5807 5807 5806 5805 5803 5786 5784 5803 5829 5825 5828 5827 5828 5829 5829 5829 5829 5827 5825 5822 5819 5815 5809 5805 5800 5796 5792 5789 5786 5783 5780 5779 5775 5771 5767 5764 5762 5760
5805 5799 5791 5798 5813 5817 5813 5810 5806 5792 5788 5794 5792 5805 5832 5831 5831 5829 5827 5826 5827 5827 5827 5824 5821 5817 5813 5809 5805 5801 5797 5793 5790 5787 5782 5779 5776 5774 5771 5768 5764 5761 5758 5756
5799 5790 5775 5781 5792 5800 5802 5807 5809 5809 5801 5793 5788 5802 5827 5826 5824 5825 5823 5821 5820 5820 5819 5817 5813 5810 5807 5804 5801 5798 5794 5791 5788 5784 5779 5775 5772 5769 5766 5763 5760 5757 5754 5752
5797 5790 5782 5776 5788 5799 5793 5798 5802 5800 5794 5792 5795 5805 5815 5815 5815 5817 5816 5815 5815 5812 5810 5809 5806 5803 5801 5799 5796 5793 5790 5788 5784 5780 5775 5770 5767 5764 5762 5759 5755 5752 5749 5747
5792 5783 5787 5794 5801 5801 5796 5796 5797 5794 5798 5794 5799 5803 5808 5812 5812 5811 5811 5810 5807 5804 5803 5801 5799 5797 5795 5792 5790 5787 5784 5782 5779 5775 5770 5766 5762 5760 5757 5753 5750 5747 5744 5743
5785 5779 5781 5781 5792 5793 5789 5794 5795 5795 5799 5798 5800 5799 5811 5812 5809 5805 5804 5802 5799 5798 5797 5796 5794 5791 5788 5786 5784 5781 5778 5776 5773 5768 5764 5760 5757 5754 5750 5747 5744 5741 5739 5737
5775 5771 5767 5771 5782 5779 5772 5788 5791 5792 5797 5797 5792 5797 5803 5799 5796 5796 5797 5796 5794 5793 5792 5791 5789 5786 5784 5782 5780 5775 5773 5771 5767 5762 5758 5754 5751 5747 5745 5743 5739 5736 5733 5731
5763 5762 5765 5767 5762 5745 5779 5796 5795 5790 5791 5795 5794 5795 5796 5793 5793 5794 5795 5792 5789 5789 5788 5785 5785 5783 5781 5779 5776 5772 5769 5764 5760 5755 5751 5748 5745 5742 5739 5736 5733 5730 5728 5725
5767 5756 5755 5757 5753 5757 5771 5783 5786 5781 5777 5788 5787 5787 5789 5790 5786 5785 5787 5787 5784 5783 5782 5781 5780 5779 5775 5772 5769 5765 5762 5758 5754 5749 5745 5743 5740 5737 5733 5730 5726 5724 5721 5719
5757 5755 5750 5747 5741 5742 5766 5780 5786 5778 5764 5780 5782 5778 5779 5779 5772 5771 5777 5777 5777 5776 5775 5773 5773 5770 5766 5763 5761 5757 5754 5751 5747 5743 5740 5738 5735 5731 5727 5724 5721 5719 5715 5713
5739 5738 5740 5741 5740 5754 5765 5774 5773 5752 5756 5772 5774 5773 5772 5770 5769 5770 5770 5768 5768 5767 5766 5764 5762 5760 5757 5754 5752 5747 5745 5742 5741 5738 5734 5730 5727 5724 5721 5718 5715 5712 5710 5707
5735 5735 5733 5737 5732 5740 5760 5763 5756 5756 5765 5767 5767 5767 5766 5765 5765 5763 5761 5759 5758 5757 5756 5754 5751 5749 5747 5745 5741 5738 5735 5735 5733 5729 5726 5723 5720 5718 5716 5711 5709 5707 5703 5700
5731 5735 5739 5738 5738 5744 5751 5753 5756 5760 5758 5759 5760 5761 5760 5756 5755 5754 5752 5751 5749 5748 5746 5744 5741 5738 5736 5735 5732 5728 5727 5726 5723 5720 5717 5714 5711 5709 5708 5705 5702 5700 5697 5696
5721 5726 5727 5726 5733 5738 5742 5746 5748 5751 5751 5754 5754 5754 5752 5748 5747 5745 5744 5742 5740 5738 5736 5735 5732 5728 5725 5723 5721 5719 5718 5716 5713 5710 5707 5705 5703 5701 5700 5698 5697 5695 5693 5690
5713 5715 5716 5716 5722 5726 5731 5734 5737 5740 5743 5745 5746 5746 5744 5742 5739 5737 5735 5732 5730 5728 5727 5725 5721 5718 5716 5714 5712 5710 5708 5705 5702 5700 5699 5697 5695 5694 5691 5690 5688 5687 5685 5683
5709 5708 5707 5710 5715 5716 5717 5724 5728 5729 5731 5734 5734 5734 5735 5733 5730 5728 5725 5723 5720 5718 5717 5715 5712 5709 5706 5704 5701 5700 5698 5695 5692 5690 5689 5690 5688 5686 5684 5682 5680 5676 5674 5670